Weather History for Volk, WI

Change the Weather History Date:

Tuesday, March 5, 2013

  Actual Average Record
Temperature  
Mean Temperature 24 °F -  
Max Temperature 28 °F 31 °F 42 °F (2005)
Min Temperature 21 °F 19 °F -4 °F (2014)
Degree Days  
Heating Degree Days 40    
Moisture  
Dew Point 22 °F    
Average Humidity 85    
Maximum Humidity 93    
Minimum Humidity 74    
Precipitation  
Precipitation 0.20 in - - ()
Snow  
Snow 0.00 in - - ()
Snow Depth 8.00 in    
Sea Level Pressure  
Sea Level Pressure 30.03 in    
Wind  
Wind Speed 10 mph (NE)    
Max Wind Speed 13 mph    
Max Gust Speed -    
Visibility 5 miles    
Events Snow    
Averages and records for this station are not official NWS values.
T = Trace of Precipitation, MM = Missing Value Source: NWS Daily Summary

Daily Weather History Graph

Daily Weather History Graph

Search for Another Location

Airport:

Trip Planner

Search our weather history database for the weather conditions in past years. The results will help you decide how hot, cold, wet, or windy it might be!

Date:

Astronomy

Mar. 05, 2013 Rise Set
Actual Time 6:30 AM CST 5:54 PM CST
Civil Twilight 6:01 AM CST 6:23 PM CST
Nautical Twilight 5:28 AM CST 6:57 PM CST
Astronomical Twilight 4:54 AM CST 7:30 PM CST
Moon 1:51 AM CST (3/5) 11:25 AM CST (3/5)
Length of Visible Light 12h 22m
Length of Day
11h 24m
Last Quarter, 40% of the Moon is Illuminated
Mar 5
Last Quarter
Mar 11
New
Mar 19
First Quarter
Mar 27
Full
Apr 2
Last Quarter

Hourly Weather History & Observations

Time (CST) Temp. Windchill Dew Point Humidity Pressure Visibility Wind Dir Wind Speed Gust Speed Precip Events Conditions
12:47 AM 26.6 °F 15.7 °F 21.2 °F 80% 30.07 in 10.0 mi East 12.7 mph - N/A   Overcast
12:50 AM 26.6 °F 16.2 °F 21.2 °F 80% 30.07 in 10.0 mi East 11.5 mph - N/A   Overcast
12:55 AM 25.7 °F 14.6 °F 20.7 °F 81% 30.07 in 10.0 mi East 12.7 mph - 0.00 in   Overcast
1:06 AM 26.6 °F 17.5 °F 21.2 °F 80% 30.06 in 10.0 mi East 9.2 mph - N/A   Overcast
1:13 AM 26.6 °F 16.2 °F 21.2 °F 80% 30.06 in 10.0 mi East 11.5 mph - N/A   Overcast
1:55 AM 25.7 °F 17.1 °F 21.2 °F 83% 30.05 in 10.0 mi ENE 8.1 mph - 0.00 in   Overcast
2:28 AM 26.6 °F 19.1 °F 21.2 °F 80% 30.04 in 10.0 mi East 6.9 mph - N/A   Overcast
2:55 AM 25.9 °F 16.6 °F 21.6 °F 84% 30.02 in 10.0 mi East 9.2 mph - 0.00 in   Overcast
3:06 AM 26.6 °F 16.2 °F 21.2 °F 80% 30.01 in 10.0 mi East 11.5 mph - N/A   Overcast
3:55 AM 26.1 °F 16.2 °F 20.3 °F 79% 30.00 in 10.0 mi East 10.4 mph - 0.00 in   Overcast
4:32 AM 26.6 °F 17.5 °F 19.4 °F 74% 29.99 in 10.0 mi ENE 9.2 mph - N/A   Overcast
4:48 AM 26.6 °F 18.2 °F 19.4 °F 74% 30.00 in 10.0 mi ENE 8.1 mph - N/A   Overcast
4:55 AM 26.1 °F 16.8 °F 18.7 °F 74% 30.00 in 10.0 mi ENE 9.2 mph - 0.00 in   Overcast
5:00 AM 26.6 °F 16.2 °F 19.4 °F 74% 30.00 in 10.0 mi ENE 11.5 mph - N/A   Overcast
5:02 AM 26.6 °F 17.5 °F 19.4 °F 74% 30.00 in 10.0 mi ENE 9.2 mph - N/A   Overcast
5:21 AM 26.6 °F 19.1 °F 19.4 °F 74% 29.99 in 10.0 mi NE 6.9 mph - N/A Snow Light Snow
5:28 AM 24.8 °F 17.9 °F 19.4 °F 80% 30.00 in 9.0 mi NE 5.8 mph - N/A Snow Light Snow
5:55 AM 25.2 °F 18.3 °F 18.7 °F 76% 30.01 in 9.0 mi NE 5.8 mph - 0.00 in Snow Light Snow
6:14 AM 24.8 °F 19.1 °F 19.4 °F 80% 30.01 in 8.0 mi NE 4.6 mph - N/A Snow Light Snow
6:20 AM 24.8 °F 17.9 °F 19.4 °F 80% 30.01 in 5.0 mi NE 5.8 mph - N/A Snow Light Snow
6:26 AM 24.8 °F 16.9 °F 19.4 °F 80% 30.01 in 2.5 mi NE 6.9 mph - N/A Snow Light Snow
6:28 AM 24.8 °F 16.9 °F 19.4 °F 80% 30.01 in 2.0 mi NE 6.9 mph - N/A Snow Light Snow
6:29 AM 24.8 °F 16.9 °F 19.4 °F 80% 30.01 in 1.8 mi NE 6.9 mph - N/A Snow Light Snow
6:31 AM 24.8 °F 17.9 °F 19.4 °F 80% 30.01 in 1.5 mi NE 5.8 mph - N/A Snow Light Snow
6:34 AM 24.8 °F 16.9 °F 21.2 °F 86% 30.01 in 1.2 mi NE 6.9 mph - N/A Snow Light Snow
6:43 AM 24.8 °F 16.9 °F 21.2 °F 86% 30.01 in 1.2 mi NE 6.9 mph - N/A Snow Light Snow
6:49 AM 24.8 °F 17.9 °F 21.2 °F 86% 30.01 in 1.0 mi NE 5.8 mph - N/A Snow Light Snow
6:51 AM 24.8 °F 17.9 °F 21.2 °F 86% 30.01 in 1.0 mi NE 5.8 mph - N/A Snow Light Snow
6:55 AM 24.8 °F 19.1 °F 21.2 °F 86% 30.01 in 0.5 mi NE 4.6 mph - N/A Snow Snow
7:55 AM 24.8 °F 15.3 °F 21.2 °F 86% 30.02 in 1.0 mi NE 9.2 mph - N/A Snow Light Snow
8:55 AM 24.8 °F 14.6 °F 21.2 °F 86% 30.02 in 0.5 mi NE 10.4 mph - N/A Snow Light Snow
9:43 AM 24.8 °F 14.6 °F 21.2 °F 86% 29.98 in 1.2 mi NE 10.4 mph - N/A Snow Light Snow
9:55 AM 24.8 °F 15.3 °F 23.0 °F 93% 30.02 in 0.2 mi NE 9.2 mph - N/A Snow Light Snow
10:54 AM 24.8 °F 14.0 °F 23.0 °F 93% 29.99 in 0.8 mi NE 11.5 mph - N/A Snow Light Snow
10:55 AM 24.8 °F 14.0 °F 23.0 °F 93% 29.99 in 0.8 mi NE 11.5 mph - N/A Snow Light Snow
10:58 AM 24.8 °F 14.6 °F 23.0 °F 93% 29.99 in 1.2 mi NE 10.4 mph - N/A Snow Light Snow
11:03 AM 24.8 °F 14.0 °F 23.0 °F 93% 29.99 in 1.5 mi NE 11.5 mph - N/A Snow Light Snow
11:09 AM 24.8 °F 13.4 °F 23.0 °F 93% 29.99 in 1.2 mi NE 12.7 mph - N/A Snow Light Snow
11:14 AM 24.8 °F 14.6 °F 23.0 °F 93% 29.99 in 1.0 mi NE 10.4 mph - N/A Snow Light Snow
11:19 AM 24.8 °F 13.4 °F 23.0 °F 93% 29.99 in 0.8 mi NE 12.7 mph - N/A Snow Light Snow
11:27 AM 26.6 °F 17.5 °F 23.0 °F 86% 29.99 in 0.8 mi NE 9.2 mph - N/A Snow Light Snow
11:28 AM 26.6 °F 17.5 °F 23.0 °F 86% 29.99 in 1.0 mi NE 9.2 mph - N/A Snow Light Snow
11:37 AM 26.6 °F 19.1 °F 23.0 °F 86% 29.99 in 0.8 mi NE 6.9 mph - N/A Snow Light Snow
11:55 AM 26.6 °F 17.5 °F 23.0 °F 86% 29.99 in 0.5 mi NE 9.2 mph - N/A Snow Light Snow
12:55 PM 28.4 °F 19.7 °F 23.0 °F 80% 29.98 in 1.0 mi NE 9.2 mph - N/A Snow Light Snow
1:05 PM 28.4 °F 19.1 °F 23.0 °F 80% 29.98 in 3.0 mi NE 10.4 mph - N/A Snow Light Snow
1:27 PM 28.4 °F 19.1 °F 23.0 °F 80% 29.94 in 1.0 mi NE 10.4 mph - N/A Snow Light Snow
1:55 PM 26.6 °F 17.5 °F 23.0 °F 86% 29.99 in 1.0 mi NNE 9.2 mph - N/A Snow Light Snow
2:55 PM 28.4 °F 19.7 °F 24.8 °F 86% 30.01 in 1.0 mi NNE 9.2 mph - N/A Snow Light Snow
3:55 PM 28.4 °F 19.1 °F 24.8 °F 86% 30.04 in 1.0 mi North 10.4 mph - N/A Snow Light Snow
4:55 PM 26.6 °F 17.5 °F 24.8 °F 93% 30.06 in 1.5 mi North 9.2 mph - N/A Snow Light Snow
5:55 PM 26.6 °F 20.0 °F 24.8 °F 93% 30.09 in 1.5 mi NNW 5.8 mph - N/A Snow Light Snow
6:55 PM 26.6 °F 17.5 °F 24.8 °F 93% 30.11 in 1.5 mi NNW 9.2 mph - N/A Snow Light Snow
7:55 PM 24.8 °F 16.1 °F 23.0 °F 93% 30.12 in 1.5 mi NNW 8.1 mph - N/A Snow Light Snow
8:05 PM 24.8 °F 16.9 °F 23.0 °F 93% 30.09 in 3.0 mi NNW 6.9 mph - N/A Snow Light Snow
8:11 PM 24.8 °F 16.1 °F 23.0 °F 93% 30.09 in 10.0 mi NW 8.1 mph - N/A Snow Light Snow
8:32 PM 24.8 °F 16.9 °F 21.2 °F 86% 30.10 in 10.0 mi NW 6.9 mph - N/A   Overcast
8:55 PM 21.2 °F 13.6 °F 19.4 °F 93% 30.14 in 10.0 mi WNW 5.8 mph - N/A   Overcast
9:55 PM 24.8 °F 14.0 °F 21.2 °F 86% 30.16 in 10.0 mi NW 11.5 mph - N/A   Overcast
10:55 PM 24.8 °F 13.4 °F 21.2 °F 86% 30.18 in 10.0 mi NW 12.7 mph - N/A   Overcast
11:55 PM 24.8 °F 14.0 °F 21.2 °F 86% 30.19 in 10.0 mi NW 11.5 mph - N/A   Overcast